AirNav   SIMCOM
 
 834 users online  

PA61 Kunda Airport
Collegeville, Pennsylvania, USA

GOING TO COLLEGEVILLE?


FAA INFORMATION EFFECTIVE 14 SEPTEMBER 2017

Location

FAA Identifier: PA61
Lat/Long: 40-10-00.3760N / 075-26-58.6610W
40-10.006267N / 075-26.977683W
40.1667711 / -75.4496281
(estimated)
Elevation: 252 ft. / 77 m (estimated)
Variation: 11W (1985)
From city: 2 miles S of COLLEGEVILLE, PA
Time zone: UTC -4 (UTC -5 during Standard Time)
Zip code: 19426

Airport Operations

Airport use: Private use. Permission required prior to landing
Activation date: 06/1940
Control tower: no
ARTCC: NEW YORK CENTER
FSS: WILLIAMSPORT FLIGHT SERVICE STATION
Attendance: UNATNDD
Wind indicator: yes
Segmented circle: no

Airport Communications

WX ASOS at PTW (7 nm NW): 119.425 (610-495-0823)
WX AWOS-3 at LOM (9 nm E): 118.925 (215-646-1068)
WX AWOS-3 at OQN (12 nm SW): 121.4 (610-692-6190)
WX AWOS-3 at CKZ (15 nm NE): 126.325 (215-257-7291)
WX AWOS-3 at UKT (16 nm N): 119.475 (215-538-7610)
WX ASOS at DYL (18 nm NE): 118.875 (215-345-0392)

Nearby radio navigation aids

VOR radial/distance  VOR name  Freq  Var
PTWr132/6.1POTTSTOWN VORTAC116.5009W
MXEr043/18.1MODENA VORTAC113.2009W
PNEr294/(20.8)NORTH PHILADELPHIA VOR112.0010W
ARDr268/25.4YARDLEY VOR/DME108.2010W
ETXr166/27.1EAST TEXAS VOR/DME110.2009W
DQOr024/30.2DUPONT VORTAC114.0010W
OODr358/32.6WOODSTOWN VORTAC112.8010W
FJCr190/33.6ALLENTOWN VORTAC117.5010W
LRPr095/38.7LANCASTER VOR/DME117.3009W

 
NDB name  Hdg/Dist  Freq  Var  ID
AMBLER300/7.927512WING .. -. --.

Airport Services

Airframe service: NONE
Powerplant service: NONE

Runway Information

Runway 11/29

Dimensions: 1350 x 50 ft. / 411 x 15 m
Surface: turf, in good condition
RUNWAY 11  RUNWAY 29
Traffic pattern: leftleft
Obstructions: nonetrees

Airport Ownership and Management from official FAA records

Ownership: Privately-owned
Owner: STANLEY T. KUNDA
183 LEVEL RD
COLLEGEVILLE, PA 19426
Phone 215-489-2413

Airport Operational Statistics

Aircraft based on the field: 2
Single engine airplanes: 2
    

Instrument Procedures

There are no published instrument procedures at PA61.

Some nearby airports with instrument procedures:

N10 - Perkiomen Valley Airport (2 nm N)
KPTW - Heritage Field Airport (7 nm NW)
KLOM - Wings Field Airport (9 nm E)
N47 - Pottstown Municipal Airport (12 nm NW)
KOQN - Brandywine Airport (12 nm SW)
KCKZ - Pennridge Airport (15 nm NE)
KUKT - Quakertown Airport (16 nm N)
KDYL - Doylestown Airport (18 nm NE)
 
Loc | Ops | Rwys | IFR | FBO | Links
Com | Nav | Svcs | Stats | Notes


 
Area around PA61 (Kunda Airport)
 
Road maps at: MapQuest Bing Google
 
Aerial photo
No photo
 
Sectional chart

 
Airport distance calculator
Flying to Kunda Airport? Find the distance to fly.

From to PA61

Sunrise and sunset
Times for 23-Sep-2017
 Local
(UTC-4)
 Zulu
(UTC)
Morning civil twilight06:2410:24
Sunrise06:5110:51
Sunset18:5722:57
Evening civil twilight19:2423:24

Current date and time
Zulu (UTC)  23-Sep-2017 12:39:25
Local (UTC-4)  23-Sep-2017 08:39:25
 
METAR
KPTW 
6nm NW 
231154Z AUTO 31003KT 9SM CLR 17/14 A3008 RMK AO2 SLP181 T01720139 10178 20150 53009 $
KLOM 
9nm E 
231215Z AUTO 00000KT 10SM CLR 19/13 A3007 RMK AO1
KCKZ 
15nm NE 
231215Z AUTO 35007KT 10SM CLR 19/13 A3008 RMK AO2
KUKT 
16nm N 
231215Z AUTO 00000KT 10SM CLR 17/13 A3008 RMK AO1
KDYL 
18nm NE 
231154Z AUTO 02003KT 10SM CLR 18/12 A3005 RMK AO2 SLP170 T01780117 10189 20156 53006
TAF
NOTAMs
Click for the latest NOTAMs
NOTAMs are issued by the DoD/FAA and will open in a separate window not controlled by AirNav.

 

 
 

Would you like to see your business listed on this page?

 If your business provides an interesting product or service to pilots, flight crews, aircraft, or users of the Kunda Airport, you should consider listing it here.  To start the listing process, click on the button below
 
Add a business
 

Other Pages about Kunda Airport

Update a link
 
Copyright © AirNav, LLC. All rights reserved. Privacy Policy  Contact